TimeMST,TemperatureF,Dew PointF,Humidity,Sea Level PressureIn,VisibilityMPH,Wind Direction,Wind SpeedMPH,Gust SpeedMPH,PrecipitationIn,Events,Conditions,WindDirDegrees,DateUTC
12:53 AM,23.0,16.0,74,30.31,10.0,Variable,3.5,-,N/A,,Clear,0,2012-11-13 07:53:00
1:53 AM,23.0,16.0,74,30.30,10.0,NE,6.9,-,N/A,,Clear,40,2012-11-13 08:53:00
2:53 AM,26.1,17.1,69,30.30,10.0,WSW,8.1,-,N/A,,Clear,240,2012-11-13 09:53:00
3:53 AM,26.1,17.1,69,30.29,10.0,Calm,Calm,-,N/A,,Clear,0,2012-11-13 10:53:00
4:53 AM,26.1,17.1,69,30.32,10.0,West,8.1,-,N/A,,Partly Cloudy,280,2012-11-13 11:53:00
5:53 AM,21.0,14.0,74,30.39,10.0,North,3.5,-,N/A,,Clear,360,2012-11-13 12:53:00
6:53 AM,21.0,15.1,78,30.39,10.0,Calm,Calm,-,N/A,,Clear,0,2012-11-13 13:53:00
7:53 AM,21.9,15.1,75,30.38,10.0,East,3.5,-,N/A,,Clear,90,2012-11-13 14:53:00
8:53 AM,25.0,16.0,69,30.37,10.0,Calm,Calm,-,0.00,,Clear,0,2012-11-13 15:53:00
9:53 AM,28.0,18.0,66,30.36,10.0,Calm,Calm,-,0.00,,Clear,0,2012-11-13 16:53:00
10:53 AM,30.9,19.9,64,30.34,10.0,SW,5.8,-,N/A,,Clear,230,2012-11-13 17:53:00
11:53 AM,34.0,21.9,61,30.31,10.0,SW,5.8,-,N/A,,Clear,230,2012-11-13 18:53:00
12:53 PM,34.0,23.0,64,30.29,10.0,East,4.6,-,0.00,,Clear,90,2012-11-13 19:53:00
1:53 PM,32.0,23.0,69,30.30,10.0,ENE,4.6,-,0.00,,Clear,70,2012-11-13 20:53:00
2:53 PM,33.1,24.1,70,30.28,10.0,ENE,4.6,-,N/A,,Clear,60,2012-11-13 21:53:00
3:53 PM,33.1,21.9,64,30.27,10.0,ENE,4.6,-,N/A,,Clear,60,2012-11-13 22:53:00
4:53 PM,28.9,19.0,67,30.29,10.0,ENE,5.8,-,N/A,,Clear,60,2012-11-13 23:53:00
5:53 PM,28.9,19.0,67,30.32,10.0,NNE,4.6,-,N/A,,Clear,30,2012-11-14 00:53:00
6:53 PM,24.1,19.0,81,30.34,10.0,NNW,5.8,-,N/A,,Clear,340,2012-11-14 01:53:00
7:53 PM,26.1,19.0,75,30.33,10.0,Calm,Calm,-,N/A,,Clear,0,2012-11-14 02:53:00
8:53 PM,28.0,19.9,72,30.30,10.0,SSE,3.5,-,N/A,,Clear,160,2012-11-14 03:53:00
9:53 PM,27.0,19.0,72,30.28,10.0,SSW,3.5,-,N/A,,Clear,200,2012-11-14 04:53:00
10:53 PM,21.9,18.0,85,30.29,10.0,Calm,Calm,-,N/A,,Clear,0,2012-11-14 05:53:00
11:53 PM,23.0,19.0,85,30.26,10.0,Calm,Calm,-,N/A,,Clear,0,2012-11-14 06:53:00